Time,TemperatureF,DewpointF,PressureIn,WindDirection,WindDirectionDegrees,WindSpeedMPH,WindSpeedGustMPH,Humidity,HourlyPrecipIn,Conditions,Clouds,dailyrainin,SoftwareType,DateUTC
2013-02-19 00:13:00,30.1,19.0,30.11,North,5,0.0,0.0,64,0.00,,,0.00,weatherlink.com 1.10,2013-02-19 06:13:00,
2013-02-19 00:27:00,29.5,19.0,30.11,North,5,0.0,0.0,64,0.00,,,0.00,weatherlink.com 1.10,2013-02-19 06:27:00,
2013-02-19 00:44:00,29.0,19.0,30.12,North,5,0.0,0.0,65,0.00,,,0.00,weatherlink.com 1.10,2013-02-19 06:44:00,
2013-02-19 00:58:00,28.6,18.0,30.12,North,5,0.0,0.0,66,0.00,,,0.00,weatherlink.com 1.10,2013-02-19 06:58:00,
2013-02-19 01:13:00,28.0,18.0,30.13,North,5,0.0,0.0,67,0.00,,,0.00,weatherlink.com 1.10,2013-02-19 07:13:00,
2013-02-19 01:30:00,27.2,18.0,30.13,North,5,0.0,0.0,69,0.00,,,0.00,weatherlink.com 1.10,2013-02-19 07:30:00,
2013-02-19 01:44:00,26.7,18.0,30.13,North,5,2.0,3.0,71,0.00,,,0.00,weatherlink.com 1.10,2013-02-19 07:44:00,
2013-02-19 01:59:00,26.3,18.0,30.14,North,5,4.0,4.0,72,0.00,,,0.00,weatherlink.com 1.10,2013-02-19 07:59:00,
2013-02-19 02:14:00,25.9,17.0,30.15,North,5,1.0,3.0,70,0.00,,,0.00,weatherlink.com 1.10,2013-02-19 08:14:00,
2013-02-19 02:29:00,25.5,17.0,30.16,North,5,1.0,3.0,71,0.00,,,0.00,weatherlink.com 1.10,2013-02-19 08:29:00,
2013-02-19 02:44:00,25.5,17.0,30.16,NNW,327,3.0,5.0,70,0.00,,,0.00,weatherlink.com 1.10,2013-02-19 08:44:00,
2013-02-19 03:00:00,25.9,17.0,30.17,WNW,299,5.0,8.0,69,0.00,,,0.00,weatherlink.com 1.10,2013-02-19 09:00:00,
2013-02-19 03:14:00,26.0,17.0,30.17,WNW,301,0.0,6.0,68,0.00,,,0.00,weatherlink.com 1.10,2013-02-19 09:14:00,
2013-02-19 03:30:00,25.5,16.0,30.17,WNW,300,3.0,6.0,68,0.00,,,0.00,weatherlink.com 1.10,2013-02-19 09:30:00,
2013-02-19 03:45:00,25.1,16.0,30.17,WNW,300,3.0,4.0,69,0.00,,,0.00,weatherlink.com 1.10,2013-02-19 09:45:00,
2013-02-19 04:00:00,24.8,16.0,30.17,WNW,300,0.0,3.0,70,0.00,,,0.00,weatherlink.com 1.10,2013-02-19 10:00:00,
2013-02-19 04:14:00,24.3,16.0,30.17,WNW,300,0.0,0.0,71,0.00,,,0.00,weatherlink.com 1.10,2013-02-19 10:14:00,
2013-02-19 04:30:00,23.6,16.0,30.18,WNW,300,2.0,3.0,72,0.00,,,0.00,weatherlink.com 1.10,2013-02-19 10:30:00,
2013-02-19 04:45:00,23.3,16.0,30.18,WNW,302,2.0,5.0,74,0.00,,,0.00,weatherlink.com 1.10,2013-02-19 10:45:00,
2013-02-19 05:00:00,23.7,16.0,30.19,NNW,331,3.0,8.0,73,0.00,,,0.00,weatherlink.com 1.10,2013-02-19 11:00:00,
2013-02-19 05:15:00,23.7,16.0,30.20,NNW,333,3.0,6.0,72,0.00,,,0.00,weatherlink.com 1.10,2013-02-19 11:15:00,
2013-02-19 05:30:00,23.2,16.0,30.20,NNW,333,1.0,4.0,73,0.00,,,0.00,weatherlink.com 1.10,2013-02-19 11:30:00,
2013-02-19 05:46:00,22.7,16.0,30.20,North,359,4.0,6.0,75,0.00,,,0.00,weatherlink.com 1.10,2013-02-19 11:46:00,
2013-02-19 06:01:00,22.6,16.0,30.21,North,5,2.0,6.0,76,0.00,,,0.00,weatherlink.com 1.10,2013-02-19 12:01:00,
2013-02-19 06:15:00,22.8,16.0,30.20,North,5,2.0,6.0,76,0.00,,,0.00,weatherlink.com 1.10,2013-02-19 12:15:00,
2013-02-19 06:30:00,23.4,17.0,30.21,North,5,3.0,6.0,75,0.00,,,0.00,weatherlink.com 1.10,2013-02-19 12:30:00,
2013-02-19 06:46:00,23.4,16.0,30.21,North,10,1.0,5.0,74,0.00,,,0.00,weatherlink.com 1.10,2013-02-19 12:46:00,
2013-02-19 07:00:00,23.2,16.0,30.21,North,10,5.0,5.0,75,0.00,,,0.00,weatherlink.com 1.10,2013-02-19 13:00:00,
2013-02-19 07:15:00,23.2,17.0,30.21,NNE,27,1.0,7.0,76,0.00,,,0.00,weatherlink.com 1.10,2013-02-19 13:15:00,
2013-02-19 07:34:00,23.7,17.0,30.22,NE,40,0.0,7.0,74,0.00,,,0.00,weatherlink.com 1.10,2013-02-19 13:34:00,
2013-02-19 07:46:00,24.9,17.0,30.23,NNE,22,7.0,10.0,72,0.00,,,0.00,weatherlink.com 1.10,2013-02-19 13:46:00,
2013-02-19 08:01:00,26.1,16.0,30.24,NNE,21,5.0,10.0,67,0.00,,,0.00,weatherlink.com 1.10,2013-02-19 14:01:00,
2013-02-19 08:15:00,26.5,16.0,30.25,NE,40,8.0,11.0,66,0.00,,,0.00,weatherlink.com 1.10,2013-02-19 14:15:00,
2013-02-19 08:32:00,27.2,17.0,30.25,NNE,15,5.0,10.0,65,0.00,,,0.00,weatherlink.com 1.10,2013-02-19 14:32:00,
2013-02-19 08:46:00,27.8,17.0,30.26,NE,46,9.0,14.0,63,0.00,,,0.00,weatherlink.com 1.10,2013-02-19 14:46:00,
2013-02-19 09:01:00,29.0,16.0,30.26,NNE,25,9.0,16.0,59,0.00,,,0.00,weatherlink.com 1.10,2013-02-19 15:01:00,
2013-02-19 09:17:00,29.5,16.0,30.27,NE,45,4.0,13.0,58,0.00,,,0.00,weatherlink.com 1.10,2013-02-19 15:17:00,
2013-02-19 09:31:00,30.3,16.0,30.27,NE,46,5.0,15.0,56,0.00,,,0.00,weatherlink.com 1.10,2013-02-19 15:31:00,
2013-02-19 09:46:00,31.1,16.0,30.27,NNE,25,5.0,12.0,54,0.00,,,0.00,weatherlink.com 1.10,2013-02-19 15:46:00,
2013-02-19 10:02:00,32.4,16.0,30.27,NE,39,8.0,11.0,52,0.00,,,0.00,weatherlink.com 1.10,2013-02-19 16:02:00,
2013-02-19 10:17:00,33.2,16.0,30.28,NNE,19,6.0,11.0,49,0.00,,,0.00,weatherlink.com 1.10,2013-02-19 16:17:00,
2013-02-19 10:33:00,33.5,16.0,30.28,NE,52,7.0,13.0,48,0.00,,,0.00,weatherlink.com 1.10,2013-02-19 16:33:00,
2013-02-19 10:47:00,34.6,16.0,30.28,ENE,71,8.0,13.0,46,0.00,,,0.00,weatherlink.com 1.10,2013-02-19 16:47:00,
2013-02-19 11:02:00,34.3,16.0,30.28,NNE,25,6.0,12.0,47,0.00,,,0.00,weatherlink.com 1.10,2013-02-19 17:02:00,
2013-02-19 11:18:00,35.0,16.0,30.28,NE,40,7.0,13.0,47,0.00,,,0.00,weatherlink.com 1.10,2013-02-19 17:18:00,
2013-02-19 11:32:00,35.8,17.0,30.28,NNE,25,3.0,11.0,46,0.00,,,0.00,weatherlink.com 1.10,2013-02-19 17:32:00,
2013-02-19 11:47:00,36.6,16.0,30.28,NNE,32,4.0,12.0,43,0.00,,,0.00,weatherlink.com 1.10,2013-02-19 17:47:00,
2013-02-19 12:02:00,37.4,17.0,30.27,NE,50,2.0,10.0,43,0.00,,,0.00,weatherlink.com 1.10,2013-02-19 18:02:00,
2013-02-19 12:18:00,38.3,17.0,30.27,NE,48,4.0,12.0,42,0.00,,,0.00,weatherlink.com 1.10,2013-02-19 18:18:00,
2013-02-19 12:33:00,38.9,17.0,30.27,NNE,30,3.0,12.0,42,0.00,,,0.00,weatherlink.com 1.10,2013-02-19 18:33:00,
2013-02-19 12:48:00,38.9,18.0,30.25,East,83,3.0,10.0,43,0.00,,,0.00,weatherlink.com 1.10,2013-02-19 18:48:00,
2013-02-19 13:03:00,39.6,18.0,30.24,ENE,72,7.0,12.0,42,0.00,,,0.00,weatherlink.com 1.10,2013-02-19 19:03:00,
2013-02-19 13:18:00,39.8,18.0,30.23,East,90,6.0,11.0,42,0.00,,,0.00,weatherlink.com 1.10,2013-02-19 19:18:00,
2013-02-19 13:33:00,40.7,19.0,30.22,ESE,110,3.0,9.0,41,0.00,,,0.00,weatherlink.com 1.10,2013-02-19 19:33:00,
2013-02-19 13:48:00,40.9,18.0,30.21,ESE,115,3.0,12.0,40,0.00,,,0.00,weatherlink.com 1.10,2013-02-19 19:48:00,
2013-02-19 14:03:00,41.2,18.0,30.20,SE,128,2.0,10.0,40,0.00,,,0.00,weatherlink.com 1.10,2013-02-19 20:03:00,
2013-02-19 14:18:00,41.7,18.0,30.20,ESE,119,2.0,8.0,39,0.00,,,0.00,weatherlink.com 1.10,2013-02-19 20:18:00,
2013-02-19 14:33:00,41.9,18.0,30.20,East,90,2.0,10.0,39,0.00,,,0.00,weatherlink.com 1.10,2013-02-19 20:33:00,
2013-02-19 14:48:00,42.3,19.0,30.19,East,89,0.0,10.0,39,0.00,,,0.00,weatherlink.com 1.10,2013-02-19 20:48:00,
2013-02-19 15:03:00,42.5,18.0,30.19,East,98,2.0,9.0,38,0.00,,,0.00,weatherlink.com 1.10,2013-02-19 21:03:00,
2013-02-19 15:18:00,42.4,19.0,30.18,East,98,3.0,10.0,39,0.00,,,0.00,weatherlink.com 1.10,2013-02-19 21:18:00,
2013-02-19 15:33:00,42.3,19.0,30.17,East,90,6.0,10.0,39,0.00,,,0.00,weatherlink.com 1.10,2013-02-19 21:33:00,
2013-02-19 15:48:00,42.7,19.0,30.17,ESE,118,4.0,8.0,39,0.00,,,0.00,weatherlink.com 1.10,2013-02-19 21:48:00,
2013-02-19 16:03:00,42.2,19.0,30.16,East,91,5.0,10.0,39,0.00,,,0.00,weatherlink.com 1.10,2013-02-19 22:03:00,
2013-02-19 16:18:00,42.8,19.0,30.15,East,90,8.0,16.0,38,0.00,,,0.00,weatherlink.com 1.10,2013-02-19 22:18:00,
2013-02-19 16:33:00,42.5,19.0,30.15,East,85,1.0,15.0,39,0.00,,,0.00,weatherlink.com 1.10,2013-02-19 22:33:00,
2013-02-19 16:48:00,42.2,19.0,30.15,ESE,120,5.0,12.0,39,0.00,,,0.00,weatherlink.com 1.10,2013-02-19 22:48:00,
2013-02-19 17:04:00,41.5,19.0,30.14,ESE,108,5.0,11.0,40,0.00,,,0.00,weatherlink.com 1.10,2013-02-19 23:04:00,
2013-02-19 17:18:00,41.6,19.0,30.14,ESE,111,3.0,10.0,40,0.00,,,0.00,weatherlink.com 1.10,2013-02-19 23:18:00,
2013-02-19 17:48:00,41.1,18.0,30.14,ESE,119,4.0,10.0,40,0.00,,,0.00,weatherlink.com 1.10,2013-02-19 23:48:00,
2013-02-19 18:03:00,40.5,18.0,30.15,East,101,2.0,8.0,41,0.00,,,0.00,weatherlink.com 1.10,2013-02-20 00:03:00,
2013-02-19 18:19:00,39.9,18.0,30.15,ESE,113,3.0,8.0,42,0.00,,,0.00,weatherlink.com 1.10,2013-02-20 00:19:00,
2013-02-19 18:33:00,39.2,18.0,30.15,ESE,119,4.0,9.0,43,0.00,,,0.00,weatherlink.com 1.10,2013-02-20 00:33:00,
2013-02-19 18:48:00,38.0,18.0,30.15,East,96,7.0,11.0,45,0.00,,,0.00,weatherlink.com 1.10,2013-02-20 00:48:00,
2013-02-19 19:04:00,36.6,17.0,30.15,East,88,7.0,12.0,46,0.00,,,0.00,weatherlink.com 1.10,2013-02-20 01:04:00,
2013-02-19 19:19:00,35.5,17.0,30.15,East,93,6.0,14.0,48,0.00,,,0.00,weatherlink.com 1.10,2013-02-20 01:19:00,
2013-02-19 19:33:00,34.5,17.0,30.15,ESE,103,5.0,16.0,50,0.00,,,0.00,weatherlink.com 1.10,2013-02-20 01:33:00,
2013-02-19 19:50:00,33.9,17.0,30.14,East,91,8.0,15.0,51,0.00,,,0.00,weatherlink.com 1.10,2013-02-20 01:50:00,
2013-02-19 20:04:00,33.2,17.0,30.16,East,92,8.0,14.0,52,0.00,,,0.00,weatherlink.com 1.10,2013-02-20 02:04:00,
2013-02-19 20:18:00,32.8,17.0,30.17,ESE,104,7.0,11.0,52,0.00,,,0.00,weatherlink.com 1.10,2013-02-20 02:18:00,
2013-02-19 20:49:00,32.4,16.0,30.17,ESE,107,6.0,15.0,51,0.00,,,0.00,weatherlink.com 1.10,2013-02-20 02:49:00,
2013-02-19 21:04:00,31.9,16.0,30.17,East,92,8.0,12.0,52,0.00,,,0.00,weatherlink.com 1.10,2013-02-20 03:04:00,
2013-02-19 21:19:00,31.4,15.0,30.17,ESE,103,7.0,13.0,51,0.00,,,0.00,weatherlink.com 1.10,2013-02-20 03:19:00,
2013-02-19 21:34:00,31.2,14.0,30.18,East,85,8.0,14.0,50,0.00,,,0.00,weatherlink.com 1.10,2013-02-20 03:34:00,
2013-02-19 21:49:00,31.3,14.0,30.17,ESE,110,6.0,10.0,49,0.00,,,0.00,weatherlink.com 1.10,2013-02-20 03:49:00,
2013-02-19 22:04:00,31.1,13.0,30.18,ESE,116,3.0,12.0,48,0.00,,,0.00,weatherlink.com 1.10,2013-02-20 04:04:00,
2013-02-19 22:19:00,31.0,13.0,30.18,ESE,108,7.0,10.0,48,0.00,,,0.00,weatherlink.com 1.10,2013-02-20 04:19:00,
2013-02-19 22:35:00,30.8,12.0,30.17,SE,128,2.0,11.0,46,0.00,,,0.00,weatherlink.com 1.10,2013-02-20 04:35:00,
2013-02-19 22:50:00,30.8,12.0,30.17,ESE,108,6.0,14.0,45,0.00,,,0.00,weatherlink.com 1.10,2013-02-20 04:50:00,
2013-02-19 23:05:00,30.5,11.0,30.17,SE,127,5.0,11.0,45,0.00,,,0.00,weatherlink.com 1.10,2013-02-20 05:05:00,
2013-02-19 23:19:00,30.3,11.0,30.17,East,84,5.0,10.0,45,0.00,,,0.00,weatherlink.com 1.10,2013-02-20 05:19:00,
2013-02-19 23:34:00,30.2,11.0,30.16,ESE,105,3.0,10.0,44,0.00,,,0.00,weatherlink.com 1.10,2013-02-20 05:34:00,
2013-02-19 23:50:00,29.9,10.0,30.16,ESE,120,4.0,11.0,43,0.00,,,0.00,weatherlink.com 1.10,2013-02-20 05:50:00,